SCP
0 0 0 0 0 0 0 0 0 0 0 0 0 0 0 0 0 0 0 0 0 0 0 0 0 0 0 0 0 0 0 0 0 0 0 0 0 0 0 0 0 0 0 0 0 0 0 0 0
0 0 0 0 0 0 0 0 0 0 0 0 0 0 0 0 0 0 0 0 0 0 0 0 0 0 0 0 0 0 0 0 0 0 0 0 0 0 0 0 0 0 0 0 0 0 0 0 0
0 0 0 0 0 0 0 0 0 0 0 0 0 0 0 0 0 0 0 0 0 0 0 0 0 0 0 0 0 0 0 0 0 0 0 0 0 0 0 0 0 0 0 0 0 0 0 0 0
0 0 0 0 0 0 0 0 0 0 0 0 0 0 0 0 0 0 0 0 0 0 0 0 0 0 0 0 0 0 0 0 0 0 0 0 0 0 0 0 0 0 0 0 0 0 0 0 0
0 0 0 0 0 0 0 0 0 0 0 0 0 0 0 0 0 0 0 0 0 0 0 0 0 0 0 0 0 0 0 0 0 0 0 0 0 0 0 0 0 0 0 0 0 0 0 0 0
0 0 0 0 0 0 0 0 0 0 0 0 0 0 0 0 0 0 0 0 0 0 0 0 0 0 0 0 0 0 0 0 0 0 0 0 0 0 0 0 0 0 0 0 0 0 0 0 0
0 0 0 0 0 0 0 0 0 0 0 0 0 0 0 0 0 0 0 0 0 0 0 0 0 0 0 0 0 0 0 0 0 0 0 0 0 0 0 0 0 0 0 0 0 0 0 0 0
0 0 0 0 0 0 0 0 0 0 0 0 0 0 0 0 0 0 0 0 0 0 0 0 0 0 0 0 0 0 0 0 0 0 0 0 0 0 0 0 0 0 0 0 0 0 0 0 0
0 0 0 0 0 0 0 0 0 0 0 0 0 0 0 0 0 0 0 0 0 0 0 0 0 0 0 0 0 0 0 0 0 0 0 0 0 0 0 0 0 0 0 0 0 0 0 0 0
0 0 0 0 0 0 0 0 0 0 0 0 0 0 0 0 0 0 0 0 0 0 0 0 0 0 0 0 0 0 0 0 0 0 0 0 0 0 0 0 0 0 0 0 0 0 0 0 0
0 0 0 0 0 0 0 0 0 0 0 0 0 0 0 0 0 0 0 0 0 0 0 0 0 0 0 0 0 0 0 0 0 0 0 0 0 0 0 0 0 0 0 0 0 0 0 0 0
0 0 0 0 0 0 0 0 0 0 0 0 0 0 0 0 0 0 0 0 0 0 0 0 0 0 0 0 0 0 0 0 0 0 0 0 0 0 0 0 0 0 0 0 0 0 0 0 0
0 0 0 0 0 0 0 0 0 0 0 0 0 0 0 0 0 0 0 0 0 0 0 0 0 0 0 0 0 0 0 0 0 0 0 0 0 0 0 0 0 0 0 0 0 0 0 0 0
0 0 0 0 0 0 0 0 0 0 0 0 0 0 0 0 0 0 0 0 0 0 0 0 0 0 0 0 0 0 0 0 0 0 0 0 0 0 0 0 0 0 0 0 0 0 0 0 0
0 0 0 0 0 0 0 0 0 0 0 0 0 0 0 0 0 0 0 0 0 0 0 0 0 0 0 0 0 0 0 0 0 0 0 0 0 0 0 0 0 0 0 0 0 0 0 0 0
0 0 0 0 0 0 0 0 0 0 0 0 0 0 0 0 0 0 0 0 0 0 0 0 0 0 0 0 0 0 0 0 0 0 0 0 0 0 0 0 0 0 0 0 0 0 0 0 0
0 0 0 0 0 0 0 0 0 0 0 0 0 0 0 0 0 0 0 0 0 0 0 0 0 0 0 0 0 0 0 0 0 0 0 0 0 0 0 0 0 0 0 0 0 0 0 0 0
0 0 0 0 0 0 0 0 0 0 0 0 0 0 0 0 0 0 0 0 0 0 0 0 0 0 0 0 0 0 0 0 0 0 0 0 0 0 0 0 0 0 0 0 0 0 0 0 0
0 0 0 0 0 0 0 0 0 0 0 0 0 0 0 0 0 0 0 0 0 0 0 0 0 0 0 0 0 0 0 0 0 0 0 0 0 0 0 0 0 0 0 0 0 0 0 0 0
0 0 0 0 0 0 0 0 0 0 0 0 0 0 0 0 0 0 0 0 0 0 0 0 0 0 0 0 0 0 0 0 0 0 0 0 0 0 0 0 0 0 0 0 0 0 0 0 0
0 0 0 0 0 0 0 0 0 0 0 0 0 0 0 0 0 0 0 0 0 0 0 0 0 0 0 0 0 0 0 0 0 0 0 0 0 0 0 0 0 0 0 0 0 0 0 0 0
0 0 0 0 0 0 0 0 0 0 0 0 0 0 0 0 0 0 0 0 0 0 0 0 0 0 0 0 0 0 0 0 0 0 0 0 0 0 0 0 0 0 0 0 0 0 0 0 0
0 0 0 0 0 0 0 0 0 0 0 0 0 0 0 0 0 0 0 0 0 0 0 0 0 0 0 0 0 0 0 0 0 0 0 0 0 0 0 0 0 0 0 0 0 0 0 0 0
0 0 0 0 0 0 0 0 0 0 0 0 0 0 0 0 0 0 0 0 0 0 0 0 0 0 0 0 0 0 0 0 0 0 0 0 0 0 0 0 0 0 0 0 0 0 0 0 0
0 0 0 0 0 0 0 0 0 0 0 0 0 0 0 0 0 0 0 0 0 0 0 0 0 0 0 0 0 0 0 0 0 0 0 0 0 0 0 0 0 0 0 0 0 0 0 0 0
0 0 0 0 0 0 0 0 0 0 0 0 0 0 0 0 0 0 0 0 0 0 0 0 0 0 0 0 0 0 0 0 0 0 0 0 0 0 0 0 0 0 0 0 0 0 0 0 0
0 0 0 0 0 0 0 0 0 0 0 0 0 0 0 0 0 0 0 0 0 0 0 0 0 0 0 0 0 0 0 0 0 0 0 0 0 0 0 0 0 0 0 0 0 0 0 0 0
0 0 0 0 0 0 0 0 0 0 0 0 0 0 0 0 0 0 0 0 0 0 0 0 0 0 0 0 0 0 0 0 0 0 0 0 0 0 0 0 0 0 0 0 0 0 0 0 0
0 0 0 0 0 0 0 0 0 0 0 0 0 0 0 0 0 0 0 0 0 0 0 0 0 0 0 0 0 0 0 0 0 0 0 0 0 0 0 0 0 0 0 0 0 0 0 0 0
0 0 0 0 0 0 0 0 0 0 0 0 0 0 0 0 0 0 0 0 0 0 0 0 0 0 0 0 0 0 0 0 0 0 0 0 0 0 0 0 0 0 0 0 0 0 0 0 0
Wind_Speed
11 8 3 5 7 5 1 2 3 2 3 2 5 9 8 4 2 4 3 9 12 9 8 9 11 13 13 13 13 13 15 16 16 17 17 17 18 18 18 18 18 18 18 18 18 18 18 18 18
5 5 5 6 5 2 3 2 2 2 4 5 6 7 6 3 3 6 5 9 12 10 8 9 11 13 14 13 13 13 15 16 16 16 17 17 17 17 18 18 18 18 18 18 18 18 17 17 18
6 3 5 4 3 4 2 2 4 2 2 4 5 5 5 4 4 5 8 12 11 9 7 9 12 13 14 14 14 14 15 16 16 16 17 17 17 17 17 17 17 17 17 17 17 17 17 17 18
4 5 5 4 1 3 4 5 5 4 2 4 6 5 2 0 3 7 13 12 11 9 8 9 12 13 14 14 14 14 15 16 16 16 16 16 16 17 17 17 17 17 17 17 17 16 17 17 17
4 4 4 1 3 3 3 4 5 5 4 3 6 5 1 4 5 14 13 12 12 8 7 8 11 12 13 14 14 15 15 16 16 16 16 16 16 16 16 16 16 16 16 16 16 15 15 16 16
4 4 3 2 4 3 3 3 4 4 4 4 6 6 2 1 8 12 12 12 11 10 7 7 11 11 12 13 13 14 14 15 15 15 15 16 15 15 15 16 16 16 15 15 15 14 14 14 14
4 4 4 4 3 3 4 3 5 5 4 5 8 8 3 3 5 9 11 11 10 10 8 6 7 9 11 11 12 12 13 13 13 14 14 13 13 14 14 14 15 15 15 14 13 13 12 13 13
4 4 3 4 4 4 3 2 3 6 4 3 6 10 8 8 7 9 10 10 10 9 8 7 6 6 7 8 11 11 12 12 12 13 12 12 12 12 11 11 13 14 13 13 12 11 10 10 11
3 4 5 6 6 5 2 2 1 2 5 4 2 5 7 12 10 11 9 7 8 9 8 8 8 7 7 7 9 10 11 11 11 10 12 10 6 6 7 9 11 12 12 11 10 9 7 6 7
3 5 8 5 4 4 2 2 4 4 3 2 3 3 7 12 12 13 13 13 12 12 10 9 9 9 8 7 6 5 5 6 6 5 6 5 5 4 6 9 9 9 9 8 8 6 4 3 3
5 7 5 4 3 2 1 2 3 7 4 6 8 9 11 11 11 12 12 12 12 12 11 10 10 9 8 6 6 3 3 4 5 6 5 5 4 4 4 3 4 4 5 3 3 2 1 1 2
5 6 5 4 3 2 3 3 3 5 7 6 10 16 16 15 16 15 14 12 11 12 12 11 11 10 9 8 6 5 4 4 4 5 6 5 4 4 4 3 3 2 2 2 2 1 2 2 2
6 5 6 5 4 3 2 3 4 5 5 3 10 14 16 17 15 12 10 9 10 12 12 12 12 12 10 9 7 7 6 5 5 5 6 7 6 5 4 3 3 3 2 3 3 2 3 2 2
7 6 5 4 4 3 4 4 3 7 3 6 12 16 16 17 15 11 10 12 13 13 13 12 13 13 11 9 8 7 7 6 6 5 7 8 6 6 5 5 4 4 3 3 3 4 3 2 2
4 5 6 6 5 4 3 6 8 7 4 7 10 13 15 15 13 15 16 15 14 14 13 13 13 13 13 11 10 8 7 7 7 7 8 8 8 8 6 5 5 5 4 4 3 3 2 2 2
5 6 8 7 7 6 7 12 9 7 7 9 9 10 13 15 16 16 15 14 12 11 13 14 12 13 13 11 9 7 7 8 7 7 7 9 9 9 7 6 6 5 4 4 4 3 3 2 2
8 11 10 6 8 7 9 9 8 7 8 10 10 11 12 13 15 15 15 15 15 15 14 14 13 14 13 11 9 7 7 8 7 7 7 8 9 9 7 7 6 6 5 4 4 3 3 3 3
11 8 8 10 7 8 10 10 8 6 9 11 11 11 12 14 18 16 17 16 15 15 15 15 14 13 12 9 7 6 6 7 7 8 9 10 9 10 8 7 7 7 5 5 4 4 3 3 3
9 9 9 8 7 9 12 14 13 10 8 10 10 11 12 16 15 13 16 16 14 14 16 17 17 15 12 10 10 10 10 8 8 9 10 11 10 11 10 8 8 8 7 7 7 5 4 3 3
10 11 9 5 6 8 9 15 13 12 11 11 12 13 14 13 11 12 14 15 17 18 19 18 18 17 15 13 11 8 7 6 6 6 9 11 12 12 11 10 9 9 8 8 8 6 4 4 4
14 15 12 6 3 4 4 9 13 12 10 11 11 12 12 15 15 14 15 18 18 19 20 18 20 19 18 14 7 5 4 3 6 8 10 12 13 13 12 12 10 10 10 9 10 9 8 6 5
19 12 10 8 6 5 7 8 9 11 14 16 16 14 14 14 14 14 15 16 18 21 19 19 19 19 18 16 12 13 13 14 13 10 10 10 12 13 13 13 12 11 10 10 10 10 8 7 6
7 9 9 9 7 5 5 7 9 7 14 18 18 18 18 16 16 15 17 18 20 19 18 18 18 18 18 17 18 17 15 13 7 7 9 11 11 13 14 14 13 12 11 11 10 11 10 8 7
7 7 4 4 5 13 14 10 11 10 14 10 13 16 17 16 16 15 15 15 16 15 15 15 17 18 18 19 19 19 19 15 11 12 12 11 10 11 14 14 13 13 12 13 13 12 12 11 9
12 10 8 10 12 13 11 12 14 10 10 13 14 14 15 15 15 14 14 14 15 15 16 16 17 19 18 19 20 20 20 18 18 16 14 12 11 12 15 15 14 13 14 13 12 12 12 13 11
21 18 12 10 9 5 7 15 12 9 10 10 12 12 12 12 13 14 15 15 15 16 17 17 18 19 18 19 20 19 18 15 13 15 12 13 12 13 12 15 15 15 14 13 12 11 12 10 13
17 18 8 4 3 4 8 8 10 7 9 11 12 11 12 12 12 13 12 13 13 14 16 18 19 18 17 18 18 17 17 16 15 14 13 10 10 9 12 13 15 15 14 14 13 12 13 12 13
11 11 7 9 9 8 7 9 11 9 14 13 13 13 13 11 10 10 10 10 11 12 13 14 16 18 17 17 16 14 16 17 16 13 14 13 13 11 11 13 14 14 14 14 14 12 12 13 12
14 17 10 8 7 8 7 11 11 14 14 15 16 14 13 12 10 9 8 8 7 7 8 10 12 13 12 13 14 14 14 14 14 14 15 14 12 12 13 13 14 15 15 14 14 14 13 14 13
12 16 16 14 10 8 6 12 6 11 13 14 15 13 11 10 8 7 7 6 6 6 7 8 9 10 11 11 11 13 13 12 13 15 15 14 14 13 14 13 13 14 14 14 15 16 14 15 15
Wind_Direction
327 330 21 46 50 48 349 286 168 130 83 71 84 89 96 93 122 144 118 134 130 133 133 129 126 125 122 120 118 115 113 111 109 106 106 104 102 101 100 97 95 94 94 94 94 92 90 89 90
326 343 38 53 77 63 308 294 122 129 152 131 88 88 82 76 87 111 123 140 132 133 132 131 128 128 127 123 120 118 116 114 111 109 108 107 106 105 103 101 99 98 98 98 97 94 91 90 90
333 30 66 65 103 165 202 222 155 140 117 95 76 65 101 131 128 136 148 140 129 127 128 133 131 131 130 126 122 119 118 117 116 113 110 109 108 107 105 104 103 101 100 100 99 96 92 92 92
22 33 53 71 222 219 192 199 172 135 82 79 101 76 57 78 167 140 139 135 128 127 130 138 135 135 133 130 126 123 122 120 119 116 113 112 111 110 109 107 105 103 103 103 101 98 93 91 93
51 66 61 20 257 255 211 194 175 142 147 116 108 107 61 329 121 131 138 135 132 130 133 139 136 135 133 132 131 128 126 123 121 119 117 116 116 114 113 111 109 107 106 105 104 101 95 91 92
53 68 108 220 254 264 246 207 156 141 153 129 114 118 151 305 128 138 139 137 136 136 134 135 134 133 132 131 131 129 128 126 125 123 122 121 121 119 117 116 113 112 110 109 108 104 98 92 92
112 119 175 205 239 263 244 196 157 153 157 161 133 122 155 209 155 139 136 135 136 137 135 133 134 133 131 129 127 126 126 126 126 125 121 119 120 118 117 118 118 117 114 113 111 107 99 91 90
136 126 183 206 205 245 249 173 166 152 161 129 126 145 178 198 163 131 130 135 138 141 142 141 136 131 128 127 128 127 125 124 122 121 115 113 113 112 112 116 121 121 119 118 115 109 98 87 86
105 115 199 208 196 228 233 160 162 134 112 74 66 169 186 155 144 133 134 140 149 154 154 150 145 140 135 135 136 130 127 127 125 123 121 115 110 109 110 120 123 125 125 125 121 113 96 74 69
126 180 214 212 192 205 213 182 172 118 108 94 47 40 129 146 153 157 162 165 166 169 168 162 156 152 148 145 138 134 134 134 132 135 130 123 121 120 119 123 127 130 131 130 125 114 88 65 58
173 199 221 240 235 208 197 202 175 139 178 191 178 166 153 161 167 173 175 173 173 171 172 172 166 161 157 149 153 149 143 145 147 148 142 133 126 123 117 118 124 128 129 120 120 101 81 96 102
189 223 216 227 228 199 198 186 180 182 205 200 179 164 164 174 181 184 183 179 174 174 178 176 172 168 165 159 162 161 159 162 165 165 154 145 143 145 147 147 154 154 149 152 152 159 165 142 130
206 226 228 231 230 215 197 208 205 227 228 154 143 159 176 184 191 192 185 179 177 181 181 179 176 175 172 167 170 170 172 175 175 171 167 162 158 162 164 166 172 180 176 174 175 177 168 154 142
207 224 243 234 228 215 204 235 209 235 190 145 156 175 187 192 192 188 188 191 190 188 185 180 179 178 175 176 176 176 178 178 179 179 177 173 168 168 171 176 182 190 189 185 181 180 171 169 156
182 209 252 240 214 213 180 249 228 225 178 177 184 190 195 201 196 198 198 198 196 192 186 184 181 180 180 180 181 179 182 179 183 185 183 181 176 175 177 180 188 194 188 181 176 180 168 171 170
172 197 226 227 195 197 177 239 240 222 197 211 208 203 204 208 206 207 204 202 197 191 190 188 184 183 184 183 182 180 182 182 186 186 186 187 185 181 180 184 192 190 180 174 173 174 171 179 180
191 210 211 215 199 180 190 234 242 222 203 220 220 213 211 214 215 213 208 204 199 196 193 191 188 186 187 185 181 180 181 186 187 187 190 192 190 186 184 189 191 182 179 181 179 178 170 172 183
192 191 190 201 203 183 206 231 242 230 207 222 226 223 217 216 218 211 209 206 201 198 196 195 193 190 185 182 180 180 186 191 191 192 195 193 194 191 188 191 190 183 182 187 184 180 177 173 169
170 177 196 204 197 189 218 233 238 234 225 228 230 227 225 225 223 211 207 204 199 197 196 196 196 193 186 188 191 193 199 196 198 199 197 197 195 193 192 194 192 190 192 194 187 174 176 181 149
193 197 202 219 207 199 227 240 241 233 227 225 227 227 227 230 226 213 206 202 200 199 199 198 199 196 195 198 197 198 195 199 202 200 201 201 199 197 198 197 197 196 195 195 191 178 173 183 173
210 207 196 189 186 214 228 261 244 243 233 235 233 229 226 223 222 215 207 204 202 202 201 200 200 199 198 194 182 175 180 190 200 206 207 207 204 203 202 202 199 198 198 201 200 191 185 190 198
219 207 187 179 174 220 199 254 248 230 236 234 234 232 230 227 222 216 209 205 204 205 202 202 200 200 198 192 190 190 200 208 210 207 207 205 206 207 206 204 203 203 203 205 204 201 197 185 195
200 172 185 192 197 224 214 237 261 222 232 233 231 231 231 228 222 217 211 208 207 205 201 201 199 200 198 196 198 200 209 215 208 200 205 208 208 210 210 208 206 207 208 209 205 202 203 202 199
148 142 172 195 201 231 216 218 256 212 218 228 229 230 231 227 224 222 216 209 208 204 200 199 198 201 198 199 201 205 210 210 203 205 208 210 210 212 213 212 211 211 212 211 210 208 208 210 209
170 167 191 203 212 229 193 213 246 214 212 214 222 230 230 226 222 221 215 209 207 202 200 199 200 203 200 201 205 208 211 211 212 212 212 209 210 213 214 211 213 213 214 213 210 210 213 213 212
193 190 197 200 206 218 182 222 245 219 221 223 226 230 232 228 223 220 215 210 208 205 202 200 202 206 202 203 208 211 212 213 217 217 215 213 215 216 212 210 214 215 214 213 211 214 217 215 218
185 203 201 165 144 190 220 253 287 239 235 232 232 233 234 231 224 222 218 212 208 205 203 201 203 207 205 206 208 211 211 213 217 216 215 217 218 215 211 211 214 215 214 213 212 218 218 217 220
186 172 171 193 184 213 233 228 230 211 214 221 225 227 231 230 227 222 217 212 209 206 204 203 205 207 207 206 207 210 212 214 216 214 215 216 216 212 209 211 214 215 215 215 215 220 219 219 221
175 187 187 189 198 193 223 244 219 205 201 209 218 222 222 222 221 219 217 211 205 201 198 200 205 208 208 208 210 212 213 214 214 216 218 218 216 212 212 213 214 215 215 214 216 220 216 220 223
193 193 188 196 203 198 212 256 226 205 205 205 215 220 220 219 216 214 209 199 195 198 199 201 204 208 211 209 209 214 215 213 215 219 220 216 216 214 213 212 214 215 216 214 216 219 217 219 221